This is the latest recevied weather packets stored in our database for station/object CRYC. If no packets are shown the sender has not sent any weather packets the latest 10 day(s).
| Time | Temp. | Humidity | Pressure | Rain* | Wind** | Luminosity | Snow |
|---|---|---|---|---|---|---|---|
| 1777844402 | 18.89° C | - | - | 0 mm | 1.34 m/s, 295° | - | - |
| 1777843802 | 18.33° C | - | - | 0 mm | 0.89 m/s, 267° | - | - |
| 1777843196 | 18.89° C | - | - | 0 mm | 1.79 m/s, 280° | - | - |
| 1777842591 | 18.89° C | - | - | 0 mm | 0.45 m/s, 343° | - | - |
| 1777841984 | 17.78° C | - | - | 0 mm | 2.24 m/s, 280° | - | - |
| 1777841374 | 18.89° C | - | - | 0 mm | 1.79 m/s, 333° | - | - |
| 1777840770 | 18.89° C | - | - | 0 mm | 1.34 m/s, 255° | - | - |
| 1777840167 | 18.89° C | - | - | 0 mm | 2.68 m/s, 345° | - | - |
| 1777839563 | 18.33° C | - | - | 0 mm | 2.68 m/s, 233° | - | - |
| 1777838956 | 18.33° C | - | - | 0 mm | 2.68 m/s, 352° | - | - |
| 1777838353 | 18.89° C | - | - | 0 mm | 0.89 m/s, 308° | - | - |
| 1777837747 | 17.78° C | - | - | 0 mm | 3.13 m/s, 277° | - | - |
| 1777837143 | 18.33° C | - | - | 0 mm | 2.24 m/s, 297° | - | - |
| 1777836540 | 18.33° C | - | - | 0 mm | 2.24 m/s, 336° | - | - |
| 1777835928 | 17.78° C | - | - | 0 mm | 4.02 m/s, 269° | - | - |
| 1777835317 | 18.33° C | - | - | 0 mm | 3.13 m/s, 285° | - | - |
| 1777834711 | 17.22° C | - | - | 0 mm | 2.24 m/s, 281° | - | - |
| 1777834107 | 18.33° C | - | - | 0 mm | 3.13 m/s, 293° | - | - |
| 1777833503 | 17.78° C | - | - | 0 mm | 3.58 m/s, 322° | - | - |
| 1777832899 | 17.78° C | - | - | 0 mm | 3.13 m/s, 273° | - | - |
| 1777832292 | 17.78° C | - | - | 0 mm | 1.34 m/s, 352° | - | - |
| 1777831686 | 17.22° C | - | - | 0 mm | 2.68 m/s, 319° | - | - |
| 1777831081 | 17.22° C | - | - | 0 mm | 1.79 m/s, 301° | - | - |
| 1777830478 | 16.67° C | - | - | 0 mm | 4.02 m/s, 255° | - | - |
| 1777829871 | 16.11° C | - | - | 0 mm | 2.68 m/s, 287° | - | - |
* Rain latest hour (hover to see other rain measurements)
** Current wind speed in m/s (hover to see current wind gust speed)